This demonstration page uses our WeatherBlox Daily Observations layout. Learn more.

Left ArrowRight Arrow

39.92423, -83.80882

Hourly Observations for January 18, 2019

Temp ( °F °C ) Dew Point ( °F °C ) Humidity (%) Winds ( mph kmh ) Pressure ( in mb ) Visibility ( mi km ) Precip ( " mm )
12:56 am 00:56 Cloudy with Mist and Fog 34 1.1 34 1.1 100 100 W 9 15 30.05 1018 6 10 N/A
1:09 am 01:09 Cloudy with Mist and Fog 34 1 34 1 100 100 W 9 15 30.09 1019 6 10 N/A
1:56 am 01:56 Cloudy with Mist and Fog 34 1.1 34 1.1 100 100 W 10 17 30.05 1018 6 10 N/A
2:56 am 02:56 Cloudy 34 1.1 34 1.1 100 100 WNW 13 20 30.08 1019 7 11 N/A
3:56 am 03:56 Cloudy with Mist and Fog 33 0.6 33 0.6 100 100 WNW 9 15 30.09 1019 5 8 N/A
4:28 am 04:28 Cloudy 34 1 34 1 100 100 WNW 10 17 30.12 1020 8 13 N/A
4:56 am 04:56 Cloudy 33 0.6 31 -0.6 92 92 WNW 15 24 30.09 1019 10 16 N/A
5:56 am 05:56 Cloudy 33 0.6 31 -0.6 92 92 WNW 9 15 30.10 1019 7 11 N/A
6:38 am 06:38 Cloudy with Mist and Fog 32 undefined 30 -1 93 93 W 9 15 30.15 1021 5 8 N/A
6:56 am 06:56 Cloudy with Mist and Fog 32 undefined 31 -0.6 96 96 WNW 10 17 30.12 1020 6 10 N/A
7:39 am 07:39 Cloudy with Mist and Fog 32 undefined 30 -1 93 93 W 8 13 30.15 1021 6 10 N/A
7:56 am 07:56 Cloudy with Mist and Fog 32 undefined 31 -0.6 96 96 WNW 7 11 30.15 1021 5 8 N/A
8:51 am 08:51 Cloudy with Mist and Fog 32 undefined 30 -1 93 93 WNW 6 9 30.18 1022 5 8 N/A
8:56 am 08:56 Cloudy with Mist and Fog 32 undefined 31 -0.6 96 96 WNW 6 9 30.16 1021 6 10 N/A
9:44 am 09:44 Cloudy with Mist and Fog 34 1 30 -1 87 87 W 8 13 30.18 1022 4 6 N/A
9:56 am 09:56 Cloudy with Mist and Fog 33 0.6 31 -0.6 92 92 W 7 11 30.17 1022 4 6 N/A
10:03 am 10:03 Cloudy with Mist and Fog 34 1 30 -1 87 87 W 8 13 30.21 1023 4 6 N/A
10:56 am 10:56 Cloudy with Mist and Fog 33 0.6 30 -1.1 89 89 NW 5 7 30.19 1022 5 8 N/A
11:56 am 11:56 Cloudy with Mist and Fog 33 0.6 30 -1.1 89 89 WNW 6 9 30.20 1023 5 8 N/A
12:56 pm 12:56 Cloudy with Mist and Fog 34 1.1 30 -1.1 85 85 NW 6 9 30.17 1022 6 10 N/A
1:56 pm 13:56 Cloudy 34 1.1 29 -1.7 82 82 W 3 6 30.16 1021 7 11 N/A
2:56 pm 14:56 Cloudy with Haze 34 1.1 29 -1.7 82 82 NNW 7 11 30.16 1021 6 10 N/A
3:56 pm 15:56 Cloudy with Haze 34 1.1 29 -1.7 82 82 N N/A 30.16 1021 5 8 N/A
4:44 pm 16:44 Cloudy 34 1 28 -2 81 81 N 3 6 30.21 1023 7 11 N/A
4:56 pm 16:56 Cloudy 33 0.6 29 -1.7 85 85 ENE 8 13 30.16 1022 7 11 N/A
5:56 pm 17:56 Cloudy 33 0.6 29 -1.7 85 85 E 3 6 30.18 1022 7 11 N/A
6:56 pm 18:56 Cloudy 33 0.6 30 -1.1 89 89 ENE 5 7 30.20 1023 7 11 N/A
7:56 pm 19:56 Cloudy with Mist and Fog 32 undefined 30 -1.1 92 92 ENE 5 7 30.21 1023 6 10 N/A
8:56 pm 20:56 Cloudy with Mist and Fog 32 undefined 30 -1.1 92 92 ESE 6 9 30.18 1022 6 10 N/A
9:56 pm 21:56 Cloudy with Mist and Fog 32 undefined 30 -1.1 92 92 ESE 9 15 30.16 1021 6 10 N/A
11:56 pm 23:56 Cloudy 32 undefined 29 -1.7 88 88 ESE 14 22 30.14 1021 9 14 N/A

Powered by AerisWeather